ARG1787 SARI-SABE

Flight info

Callsign ARG1787
Flight time 1h 19m
Altitude 34000
Route NAIDE2C NAIDE UT667 GEMSU UN785 GUA UZ129 PAGON PAGON8Q
Aircraft B738/M-SDE2E3FGHIRWXY/LB1

Departure

Time 2026-05-07 22:15
Airport Cataratas Del Iguazú International Airport (SARI)

Arrival

Time 2026-05-07 23:34
Airport Aeroparque Jorge Newbery (SABE)
Time Latitude Longitude Altitude Speed Heading
2026-05-07 21:51 -25.73211 -54.47709 928 ft 0 kts 27°
2026-05-07 22:07 -25.73233 -54.47721 930 ft 4 kts 20°
2026-05-07 22:08 -25.73255 -54.47725 928 ft 4 kts 320°
2026-05-07 22:08 -25.73266 -54.47705 926 ft 4 kts 295°
2026-05-07 22:08 -25.73273 -54.47688 928 ft 0 kts 295°
2026-05-07 22:10 -25.73268 -54.47701 926 ft 5 kts 295°
2026-05-07 22:11 -25.73242 -54.47761 926 ft 12 kts 295°
2026-05-07 22:11 -25.73221 -54.47851 926 ft 12 kts 269°
2026-05-07 22:11 -25.73228 -54.47944 927 ft 12 kts 265°
2026-05-07 22:11 -25.73235 -54.48034 927 ft 12 kts 265°
2026-05-07 22:12 -25.73242 -54.48124 930 ft 13 kts 264°
2026-05-07 22:12 -25.73251 -54.48226 928 ft 13 kts 264°
2026-05-07 22:12 -25.73260 -54.48327 928 ft 13 kts 264°
2026-05-07 22:12 -25.73267 -54.48425 927 ft 13 kts 274°
2026-05-07 22:13 -25.73234 -54.48528 927 ft 16 kts 294°
2026-05-07 22:13 -25.73186 -54.48642 927 ft 16 kts 295°
2026-05-07 22:13 -25.73134 -54.48735 925 ft 11 kts 321°
2026-05-07 22:13 -25.73090 -54.48786 925 ft 6 kts 284°
2026-05-07 22:14 -25.73106 -54.48808 926 ft 4 kts 184°
2026-05-07 22:14 -25.73123 -54.48788 926 ft 0 kts 118°
2026-05-07 22:14 -25.73126 -54.48783 925 ft 7 kts 118°
2026-05-07 22:14 -25.73248 -54.48493 927 ft 77 kts 115°
2026-05-07 22:15 -25.73566 -54.47734 928 ft 138 kts 115°
2026-05-07 22:15 -25.74039 -54.46606 1097 ft 174 kts 114°
2026-05-07 22:15 -25.74566 -54.45376 1729 ft 182 kts 110°
2026-05-07 22:15 -25.75142 -54.44052 2191 ft 201 kts 107°
2026-05-07 22:16 -25.75762 -54.42545 2477 ft 229 kts 105°
2026-05-07 22:16 -25.76447 -54.40840 2690 ft 254 kts 106°
2026-05-07 22:16 -25.77458 -54.39107 2959 ft 287 kts 131°
2026-05-07 22:16 -25.79267 -54.37983 3400 ft 310 kts 163°
2026-05-07 22:17 -25.81413 -54.37627 4162 ft 314 kts 177°
2026-05-07 22:17 -25.83593 -54.37495 5011 ft 315 kts 180°
2026-05-07 22:17 -25.85784 -54.37403 5844 ft 316 kts 180°
2026-05-07 22:17 -25.87990 -54.37311 6634 ft 319 kts 180°
2026-05-07 22:18 -25.90213 -54.37207 7426 ft 320 kts 180°
2026-05-07 22:18 -25.94682 -54.36968 8967 ft 324 kts 181°
2026-05-07 22:18 -25.96935 -54.36837 9766 ft 325 kts 181°
2026-05-07 22:19 -25.99219 -54.36702 10281 ft 337 kts 181°
2026-05-07 22:19 -26.01641 -54.36562 10452 ft 359 kts 181°
2026-05-07 22:19 -26.04210 -54.36411 10615 ft 380 kts 181°
2026-05-07 22:19 -26.06911 -54.36247 10841 ft 396 kts 180°
2026-05-07 22:20 -26.09689 -54.36074 11332 ft 402 kts 180°
2026-05-07 22:20 -26.12484 -54.35898 11989 ft 403 kts 180°
2026-05-07 22:20 -26.15292 -54.35721 12642 ft 405 kts 181°
2026-05-07 22:20 -26.18113 -54.35547 13240 ft 407 kts 181°
2026-05-07 22:21 -26.20949 -54.35373 13786 ft 410 kts 181°
2026-05-07 22:21 -26.23809 -54.35207 14281 ft 413 kts 183°
2026-05-07 22:21 -26.26630 -54.35576 14730 ft 406 kts 202°
2026-05-07 22:21 -26.29289 -54.36590 15249 ft 406 kts 205°
2026-05-07 22:22 -26.31973 -54.37633 15712 ft 410 kts 204°
2026-05-07 22:22 -26.34681 -54.38671 16163 ft 414 kts 204°
2026-05-07 22:22 -26.37422 -54.39707 16627 ft 418 kts 204°
2026-05-07 22:22 -26.40196 -54.40746 17093 ft 422 kts 204°
2026-05-07 22:23 -26.42991 -54.41787 17551 ft 426 kts 204°
2026-05-07 22:23 -26.45810 -54.42834 18008 ft 429 kts 204°
2026-05-07 22:23 -26.48661 -54.43893 18384 ft 433 kts 204°
2026-05-07 22:23 -26.51525 -54.44958 18781 ft 436 kts 204°
2026-05-07 22:24 -26.54410 -54.46030 19199 ft 439 kts 204°
2026-05-07 22:24 -26.57323 -54.47115 19571 ft 442 kts 205°
2026-05-07 22:24 -26.60250 -54.48205 19982 ft 445 kts 205°
2026-05-07 22:24 -26.63191 -54.49300 20427 ft 446 kts 205°
2026-05-07 22:25 -26.66143 -54.50401 20824 ft 449 kts 205°
2026-05-07 22:25 -26.69121 -54.51513 21224 ft 451 kts 205°
2026-05-07 22:25 -26.71977 -54.52878 21596 ft 442 kts 218°
2026-05-07 22:25 -26.74540 -54.54684 22016 ft 440 kts 221°
2026-05-07 22:26 -26.77081 -54.56591 22429 ft 441 kts 222°
2026-05-07 22:26 -26.79621 -54.58522 22822 ft 443 kts 222°
2026-05-07 22:26 -26.82179 -54.60454 23199 ft 445 kts 222°
2026-05-07 22:26 -26.84759 -54.62379 23544 ft 446 kts 221°
2026-05-07 22:27 -26.87356 -54.64297 23834 ft 448 kts 221°
2026-05-07 22:27 -26.89968 -54.66214 24123 ft 451 kts 221°
2026-05-07 22:27 -26.92598 -54.68136 24407 ft 452 kts 221°
2026-05-07 22:27 -26.95237 -54.70063 24724 ft 453 kts 221°
2026-05-07 22:28 -26.97877 -54.71992 25004 ft 454 kts 221°
2026-05-07 22:28 -27.00532 -54.73934 25272 ft 456 kts 221°
2026-05-07 22:28 -27.03196 -54.75884 25542 ft 458 kts 221°
2026-05-07 22:28 -27.05866 -54.77841 25809 ft 460 kts 221°
2026-05-07 22:29 -27.08548 -54.79808 26078 ft 461 kts 221°
2026-05-07 22:29 -27.11235 -54.81779 26335 ft 463 kts 221°
2026-05-07 22:29 -27.13933 -54.83760 26619 ft 463 kts 221°
2026-05-07 22:29 -27.16632 -54.85741 26904 ft 464 kts 221°
2026-05-07 22:30 -27.19342 -54.87733 27145 ft 466 kts 221°
2026-05-07 22:30 -27.22051 -54.89727 27386 ft 467 kts 221°
2026-05-07 22:30 -27.24774 -54.91731 27617 ft 469 kts 221°
2026-05-07 22:30 -27.27507 -54.93743 27862 ft 470 kts 221°
2026-05-07 22:31 -27.30248 -54.95762 28153 ft 470 kts 221°
2026-05-07 22:31 -27.32932 -54.97820 28524 ft 462 kts 227°
2026-05-07 22:31 -27.35086 -55.00386 28904 ft 442 kts 243°
2026-05-07 22:31 -27.36575 -55.03347 29310 ft 432 kts 250°
2026-05-07 22:32 -27.37909 -55.06361 29661 ft 430 kts 250°
2026-05-07 22:32 -27.39225 -55.09384 29939 ft 430 kts 250°
2026-05-07 22:32 -27.40545 -55.12404 30221 ft 430 kts 250°
2026-05-07 22:32 -27.41876 -55.15418 30528 ft 429 kts 250°
2026-05-07 22:33 -27.43213 -55.18418 30751 ft 429 kts 249°
2026-05-07 22:33 -27.44558 -55.21420 30987 ft 430 kts 249°
2026-05-07 22:33 -27.45902 -55.24410 31408 ft 425 kts 249°
2026-05-07 22:33 -27.47224 -55.27338 32078 ft 414 kts 249°
2026-05-07 22:34 -27.48515 -55.30200 32740 ft 405 kts 250°
2026-05-07 22:34 -27.49775 -55.33001 33300 ft 398 kts 250°
2026-05-07 22:34 -27.51034 -55.35812 33706 ft 395 kts 250°
2026-05-07 22:34 -27.52250 -55.38532 33906 ft 396 kts 250°
2026-05-07 22:35 -27.53490 -55.41312 34062 ft 398 kts 250°
2026-05-07 22:35 -27.54736 -55.44100 34267 ft 398 kts 250°
2026-05-07 22:35 -27.55979 -55.46881 34506 ft 397 kts 250°
2026-05-07 22:35 -27.57222 -55.49660 34698 ft 398 kts 250°
2026-05-07 22:36 -27.58468 -55.52450 34867 ft 399 kts 250°
2026-05-07 22:36 -27.59715 -55.55244 35066 ft 399 kts 250°
2026-05-07 22:36 -27.61107 -55.57976 35234 ft 409 kts 240°
2026-05-07 22:36 -27.63136 -55.60305 35367 ft 426 kts 225°
2026-05-07 22:37 -27.65581 -55.62239 35516 ft 431 kts 222°
2026-05-07 22:37 -27.68103 -55.64104 35669 ft 434 kts 221°
2026-05-07 22:37 -27.70646 -55.65948 35811 ft 435 kts 221°
2026-05-07 22:37 -27.73194 -55.67799 35968 ft 436 kts 221°
2026-05-07 22:38 -27.75743 -55.69668 36111 ft 437 kts 221°
2026-05-07 22:38 -27.78287 -55.71551 36245 ft 438 kts 221°
2026-05-07 22:38 -27.80830 -55.73448 36390 ft 439 kts 221°
2026-05-07 22:38 -27.83374 -55.75356 36491 ft 440 kts 221°
2026-05-07 22:39 -27.85930 -55.77280 36574 ft 443 kts 221°
2026-05-07 22:39 -27.91084 -55.81165 36786 ft 446 kts 222°
2026-05-07 22:39 -27.93670 -55.83116 36900 ft 448 kts 222°
2026-05-07 22:40 -27.96266 -55.85075 36985 ft 450 kts 222°
2026-05-07 22:40 -28.00603 -55.88348 37148 ft 452 kts 222°
2026-05-07 22:41 -28.05852 -55.92315 37334 ft 455 kts 222°
2026-05-07 22:41 -28.11138 -55.96313 37511 ft 458 kts 222°
2026-05-07 22:41 -28.13793 -55.98324 37641 ft 459 kts 222°
2026-05-07 22:42 -28.16449 -56.00335 37709 ft 460 kts 222°
2026-05-07 22:42 -28.21794 -56.04390 37730 ft 464 kts 222°
2026-05-07 22:43 -28.27187 -56.08487 37733 ft 469 kts 223°
2026-05-07 22:43 -28.32639 -56.12632 37736 ft 474 kts 223°
2026-05-07 22:44 -28.38134 -56.16814 37738 ft 478 kts 223°
2026-05-07 22:44 -28.43677 -56.21038 37737 ft 481 kts 223°
2026-05-07 22:45 -28.50911 -56.26558 37738 ft 484 kts 223°
2026-05-07 22:45 -28.73411 -56.43792 37735 ft 490 kts 224°
2026-05-07 22:46 -28.91057 -56.57372 37747 ft 495 kts 225°
2026-05-07 22:46 -29.13975 -56.75108 37766 ft 500 kts 225°
2026-05-07 22:47 -29.36931 -56.92959 37739 ft 494 kts 225°
2026-05-07 22:47 -29.59294 -57.10452 37771 ft 480 kts 226°
2026-05-07 22:48 -29.79886 -57.26670 37821 ft 484 kts 225°
2026-05-07 22:48 -29.95131 -57.38719 37829 ft 496 kts 225°
2026-05-07 22:49 -30.05279 -57.46753 37795 ft 499 kts 225°
2026-05-07 22:49 -30.24600 -57.62101 37761 ft 496 kts 222°
2026-05-07 22:50 -30.30936 -57.65488 37782 ft 509 kts 205°
2026-05-07 22:50 -30.37770 -57.67778 37787 ft 507 kts 204°
2026-05-07 22:51 -30.44475 -57.70005 37793 ft 504 kts 205°
2026-05-07 22:51 -30.51266 -57.72363 37803 ft 508 kts 205°
2026-05-07 22:52 -30.58065 -57.74756 37805 ft 513 kts 205°
2026-05-07 22:52 -30.64871 -57.77145 37802 ft 516 kts 205°
2026-05-07 22:53 -30.71792 -57.79572 37806 ft 516 kts 205°
2026-05-07 22:53 -30.78626 -57.81949 37784 ft 508 kts 205°
2026-05-07 22:54 -30.85361 -57.84293 37811 ft 504 kts 205°
2026-05-07 22:54 -30.92060 -57.86639 37793 ft 502 kts 205°
2026-05-07 22:55 -30.98755 -57.88987 37803 ft 502 kts 205°
2026-05-07 22:55 -31.05444 -57.91336 37787 ft 502 kts 205°
2026-05-07 22:56 -31.12099 -57.93676 37783 ft 503 kts 205°
2026-05-07 22:56 -31.18807 -57.96037 37769 ft 505 kts 205°
2026-05-07 22:57 -31.25541 -57.98410 37763 ft 506 kts 205°
2026-05-07 22:57 -31.32289 -58.00792 37759 ft 507 kts 205°
2026-05-07 22:58 -31.39058 -58.03184 37816 ft 509 kts 205°
2026-05-07 22:58 -31.45879 -58.05599 37816 ft 510 kts 205°
2026-05-07 22:59 -31.52673 -58.08007 37808 ft 510 kts 205°
2026-05-07 22:59 -31.59424 -58.10403 37809 ft 510 kts 205°
2026-05-07 23:00 -31.66211 -58.12816 37809 ft 510 kts 205°
2026-05-07 23:00 -31.72999 -58.15233 37810 ft 509 kts 205°
2026-05-07 23:01 -31.79777 -58.17651 37806 ft 508 kts 205°
2026-05-07 23:01 -31.86578 -58.20080 37797 ft 507 kts 205°
2026-05-07 23:02 -31.93265 -58.22472 37799 ft 505 kts 205°
2026-05-07 23:02 -31.99972 -58.24876 37769 ft 503 kts 205°
2026-05-07 23:03 -32.06649 -58.27272 37768 ft 501 kts 205°
2026-05-07 23:03 -32.13304 -58.29664 37770 ft 498 kts 205°
2026-05-07 23:04 -32.19926 -58.32049 37768 ft 496 kts 205°
2026-05-07 23:04 -32.26514 -58.34426 37771 ft 495 kts 204°
2026-05-07 23:05 -32.33247 -58.36295 37781 ft 500 kts 195°
2026-05-07 23:05 -32.40140 -58.37515 37764 ft 501 kts 194°
2026-05-07 23:06 -32.47031 -58.38701 37755 ft 500 kts 195°
2026-05-07 23:06 -32.53896 -58.39954 37749 ft 499 kts 195°
2026-05-07 23:07 -32.60751 -58.41247 37748 ft 499 kts 195°
2026-05-07 23:07 -32.64193 -58.41902 37391 ft 505 kts 195°
2026-05-07 23:07 -32.67673 -58.42567 36861 ft 506 kts 195°
2026-05-07 23:07 -32.71146 -58.43226 36362 ft 504 kts 195°
2026-05-07 23:08 -32.74600 -58.43879 35881 ft 502 kts 195°
2026-05-07 23:08 -32.78062 -58.44535 35299 ft 504 kts 195°
2026-05-07 23:08 -32.81535 -58.45195 34661 ft 507 kts 195°
2026-05-07 23:08 -32.85032 -58.45861 34025 ft 511 kts 195°
2026-05-07 23:09 -32.88558 -58.46534 33301 ft 516 kts 195°
2026-05-07 23:09 -32.92117 -58.47212 32603 ft 519 kts 194°
2026-05-07 23:09 -32.95692 -58.47893 31921 ft 521 kts 194°
2026-05-07 23:09 -32.99275 -58.48575 31376 ft 521 kts 194°
2026-05-07 23:10 -33.02845 -58.49252 30900 ft 518 kts 194°
2026-05-07 23:10 -33.06399 -58.49927 30419 ft 516 kts 193°
2026-05-07 23:10 -33.09938 -58.50601 29937 ft 514 kts 193°
2026-05-07 23:10 -33.13467 -58.51275 29393 ft 512 kts 193°
2026-05-07 23:11 -33.16977 -58.51946 28880 ft 509 kts 193°
2026-05-07 23:11 -33.20464 -58.52613 28374 ft 506 kts 193°
2026-05-07 23:11 -33.23933 -58.53277 27889 ft 503 kts 193°
2026-05-07 23:11 -33.27379 -58.53938 27411 ft 502 kts 193°
2026-05-07 23:12 -33.30882 -58.54616 26967 ft 520 kts 193°
2026-05-07 23:12 -33.34522 -58.55325 26473 ft 539 kts 193°
2026-05-07 23:12 -33.38258 -58.56050 25938 ft 544 kts 193°
2026-05-07 23:12 -33.41991 -58.56765 25407 ft 541 kts 193°
2026-05-07 23:13 -33.45718 -58.57478 24915 ft 546 kts 193°
2026-05-07 23:13 -33.49482 -58.58201 24371 ft 548 kts 193°
2026-05-07 23:13 -33.53227 -58.58919 23840 ft 543 kts 194°
2026-05-07 23:13 -33.56940 -58.59630 23311 ft 536 kts 194°
2026-05-07 23:14 -33.60602 -58.60334 22703 ft 530 kts 194°
2026-05-07 23:14 -33.64212 -58.61030 22163 ft 522 kts 194°
2026-05-07 23:14 -33.67767 -58.61716 21644 ft 514 kts 194°
2026-05-07 23:14 -33.71264 -58.62393 21137 ft 505 kts 194°
2026-05-07 23:15 -33.74703 -58.63059 20641 ft 496 kts 194°
2026-05-07 23:15 -33.78081 -58.63714 20147 ft 487 kts 194°
2026-05-07 23:15 -33.81403 -58.64358 19673 ft 479 kts 194°
2026-05-07 23:15 -33.84660 -58.64989 19197 ft 470 kts 194°
2026-05-07 23:16 -33.87858 -58.65611 18721 ft 462 kts 194°
2026-05-07 23:16 -33.90999 -58.66225 18257 ft 453 kts 194°
2026-05-07 23:16 -33.94083 -58.66828 17765 ft 445 kts 193°
2026-05-07 23:16 -33.97111 -58.67420 17243 ft 437 kts 193°
2026-05-07 23:17 -34.00086 -58.68003 16776 ft 429 kts 193°
2026-05-07 23:17 -34.03024 -58.68579 16311 ft 427 kts 193°
2026-05-07 23:17 -34.05954 -58.69155 15852 ft 428 kts 193°
2026-05-07 23:17 -34.08887 -58.69731 15374 ft 426 kts 192°
2026-05-07 23:18 -34.11803 -58.70302 14905 ft 422 kts 192°
2026-05-07 23:18 -34.14685 -58.70866 14450 ft 419 kts 192°
2026-05-07 23:18 -34.17556 -58.71428 13980 ft 416 kts 192°
2026-05-07 23:18 -34.20404 -58.71986 13539 ft 414 kts 192°
2026-05-07 23:19 -34.23214 -58.72538 13017 ft 412 kts 192°
2026-05-07 23:19 -34.26034 -58.73091 12521 ft 410 kts 192°
2026-05-07 23:19 -34.28838 -58.73642 12049 ft 407 kts 192°
2026-05-07 23:19 -34.31620 -58.74189 11576 ft 404 kts 192°
2026-05-07 23:20 -34.34382 -58.74732 11041 ft 401 kts 192°
2026-05-07 23:20 -34.37121 -58.75272 10493 ft 396 kts 192°
2026-05-07 23:20 -34.39809 -58.75801 10121 ft 386 kts 192°
2026-05-07 23:20 -34.41540 -58.76141 10009 ft 376 kts 192°
2026-05-07 23:21 -34.44072 -58.76638 9850 ft 359 kts 192°
2026-05-07 23:21 -34.46464 -58.77110 9700 ft 338 kts 192°
2026-05-07 23:21 -34.48726 -58.77556 9456 ft 322 kts 192°
2026-05-07 23:21 -34.50896 -58.77985 9178 ft 309 kts 192°
2026-05-07 23:22 -34.52992 -58.78313 8878 ft 300 kts 181°
2026-05-07 23:22 -34.54995 -58.77749 8574 ft 297 kts 156°
2026-05-07 23:22 -34.56637 -58.76288 8284 ft 291 kts 135°
2026-05-07 23:22 -34.57774 -58.74295 7985 ft 286 kts 114°
2026-05-07 23:23 -34.58448 -58.72058 7723 ft 281 kts 109°
2026-05-07 23:23 -34.59042 -58.69808 7448 ft 279 kts 109°
2026-05-07 23:23 -34.59616 -58.67587 7168 ft 272 kts 109°
2026-05-07 23:23 -34.60169 -58.65446 6935 ft 261 kts 109°
2026-05-07 23:24 -34.60709 -58.63371 6655 ft 256 kts 110°
2026-05-07 23:24 -34.61244 -58.61332 6392 ft 252 kts 110°
2026-05-07 23:24 -34.61773 -58.59324 6143 ft 248 kts 110°
2026-05-07 23:24 -34.62298 -58.57333 5889 ft 247 kts 111°
2026-05-07 23:25 -34.62820 -58.55360 5700 ft 245 kts 111°
2026-05-07 23:25 -34.63346 -58.53372 5429 ft 247 kts 111°
2026-05-07 23:25 -34.63870 -58.51394 5170 ft 245 kts 112°
2026-05-07 23:25 -34.64386 -58.49438 4922 ft 242 kts 112°
2026-05-07 23:26 -34.64902 -58.47490 4671 ft 245 kts 111°
2026-05-07 23:26 -34.65432 -58.45490 4433 ft 251 kts 112°
2026-05-07 23:26 -34.65968 -58.43462 4180 ft 254 kts 113°
2026-05-07 23:26 -34.66512 -58.41407 3925 ft 256 kts 112°
2026-05-07 23:27 -34.67596 -58.37297 3407 ft 253 kts 112°
2026-05-07 23:27 -34.68129 -58.35271 3144 ft 250 kts 113°
2026-05-07 23:27 -34.68659 -58.33259 3031 ft 250 kts 112°
2026-05-07 23:28 -34.69173 -58.31296 2985 ft 236 kts 113°
2026-05-07 23:28 -34.69647 -58.29476 2975 ft 217 kts 113°
2026-05-07 23:28 -34.70093 -58.27773 2978 ft 208 kts 114°
2026-05-07 23:28 -34.70275 -58.26015 2867 ft 219 kts 80°
2026-05-07 23:29 -34.69516 -58.24445 2690 ft 218 kts 34°
2026-05-07 23:29 -34.68167 -58.23845 2558 ft 201 kts 354°
2026-05-07 23:29 -34.66772 -58.23811 2538 ft 199 kts 346°
2026-05-07 23:29 -34.65586 -58.24414 2378 ft 178 kts 304°
2026-05-07 23:30 -34.64911 -58.25604 2276 ft 170 kts 296°
2026-05-07 23:30 -34.64224 -58.26772 2144 ft 169 kts 297°
2026-05-07 23:30 -34.63552 -58.27937 2015 ft 168 kts 297°
2026-05-07 23:30 -34.62891 -58.29106 1885 ft 168 kts 297°
2026-05-07 23:31 -34.62236 -58.30270 1761 ft 162 kts 297°
2026-05-07 23:31 -34.61641 -58.31328 1694 ft 143 kts 296°
2026-05-07 23:31 -34.61097 -58.32300 1709 ft 138 kts 296°
2026-05-07 23:31 -34.60556 -58.33274 1520 ft 138 kts 296°
2026-05-07 23:32 -34.60018 -58.34238 1329 ft 137 kts 297°
2026-05-07 23:32 -34.59479 -58.35203 1139 ft 140 kts 297°
2026-05-07 23:32 -34.58931 -58.36185 966 ft 142 kts 297°
2026-05-07 23:32 -34.58383 -58.37188 799 ft 142 kts 298°
2026-05-07 23:33 -34.57830 -58.38180 623 ft 140 kts 300°
2026-05-07 23:33 -34.57275 -58.39157 389 ft 141 kts 301°
2026-05-07 23:33 -34.56808 -58.40000 206 ft 141 kts 303°
2026-05-07 23:33 -34.56253 -58.40989 28 ft 138 kts 304°
2026-05-07 23:34 -34.55804 -58.41794 23 ft 85 kts 304°
2026-05-07 23:34 -34.55558 -58.42237 26 ft 53 kts 304°
2026-05-07 23:34 -34.55437 -58.42453 27 ft 11 kts 304°
2026-05-07 23:34 -34.55378 -58.42493 25 ft 10 kts 22°
2026-05-07 23:35 -34.55364 -58.42425 24 ft 7 kts 97°
2026-05-07 23:35 -34.55376 -58.42367 28 ft 7 kts 118°
2026-05-07 23:35 -34.55404 -58.42321 24 ft 7 kts 127°
2026-05-07 23:35 -34.55431 -58.42276 25 ft 7 kts 127°
2026-05-07 23:36 -34.55459 -58.42231 25 ft 6 kts 127°
2026-05-07 23:36 -34.55487 -58.42186 26 ft 8 kts 127°
2026-05-07 23:36 -34.55529 -58.42118 27 ft 12 kts 127°
2026-05-07 23:36 -34.55591 -58.42016 27 ft 17 kts 124°
2026-05-07 23:37 -34.55665 -58.41883 25 ft 20 kts 124°
2026-05-07 23:37 -34.55738 -58.41747 27 ft 17 kts 118°
2026-05-07 23:37 -34.55785 -58.41636 24 ft 14 kts 116°
2026-05-07 23:37 -34.55824 -58.41542 26 ft 14 kts 116°
2026-05-07 23:38 -34.55866 -58.41442 28 ft 13 kts 117°
2026-05-07 23:38 -34.55904 -58.41350 24 ft 8 kts 113°
2026-05-07 23:38 -34.55885 -58.41293 28 ft 8 kts 39°
2026-05-07 23:38 -34.55870 -58.41284 25 ft 0 kts
2026-05-07 23:39 -34.55864 -58.41288 27 ft 1 kts 329°
2026-05-07 23:39 -34.55860 -58.41296 28 ft 1 kts 300°
2026-05-07 23:39 -34.55857 -58.41307 29 ft 2 kts 287°
2026-05-07 23:39 -34.55857 -58.41322 26 ft 1 kts 265°
2026-05-07 23:40 -34.55858 -58.41334 27 ft 2 kts 265°
2026-05-07 23:40 -34.55858 -58.41336 27 ft 0 kts 265°